BAW3MP EGLL-LFMN

Flight info

Callsign BAW3MP
Flight time 1h 41m
Altitude 31000
Route MODMI M185 MID L612 BOGNA UL612 VEULE DCT KOTAP DCT KETEX DCT KOTIS DCT KUKOR DCT UTUVA DCT LERGA DCT LIQID DCT LATAM DCT TUNUR DCT NISAR
Aircraft A320/M-SDE3FGHIRWY/LB1

Departure

Time 2026-04-30 19:08
Airport London Heathrow Airport (EGLL)

Arrival

Time 2026-04-30 20:50
Airport Nice-Côte d'Azur Airport (LFMN)
Time Latitude Longitude Altitude Speed Heading
2026-04-30 18:46 51.47188 -0.48589 86 ft 0 kts 269°
2026-04-30 18:58 51.47188 -0.48588 86 ft 1 kts 269°
2026-04-30 18:58 51.47188 -0.48565 88 ft 3 kts 269°
2026-04-30 18:59 51.47189 -0.48502 86 ft 3 kts 249°
2026-04-30 19:00 51.47224 -0.48473 86 ft 2 kts 179°
2026-04-30 19:00 51.47227 -0.48473 86 ft 0 kts 179°
2026-04-30 19:03 51.47226 -0.48473 86 ft 1 kts 179°
2026-04-30 19:03 51.47161 -0.48473 86 ft 10 kts 180°
2026-04-30 19:04 51.46937 -0.48470 88 ft 22 kts 180°
2026-04-30 19:04 51.46645 -0.48467 86 ft 13 kts 179°
2026-04-30 19:05 51.46599 -0.48467 86 ft 0 kts 180°
2026-04-30 19:06 51.46520 -0.48467 86 ft 10 kts 180°
2026-04-30 19:06 51.46478 -0.48436 89 ft 7 kts 98°
2026-04-30 19:06 51.46478 -0.48409 87 ft 0 kts 90°
2026-04-30 19:08 51.46480 -0.47828 87 ft 83 kts 90°
2026-04-30 19:08 51.46489 -0.44916 264 ft 159 kts 90°
2026-04-30 19:08 51.46490 -0.43152 951 ft 159 kts 91°
2026-04-30 19:09 51.45774 -0.39811 1801 ft 178 kts 126°
2026-04-30 19:09 51.44946 -0.38220 2142 ft 200 kts 139°
2026-04-30 19:09 51.43550 -0.37308 2380 ft 234 kts 161°
2026-04-30 19:10 51.40298 -0.35926 4143 ft 245 kts 177°
2026-04-30 19:10 51.37011 -0.37765 5736 ft 261 kts 204°
2026-04-30 19:11 51.35399 -0.39042 5949 ft 263 kts 204°
2026-04-30 19:11 51.32124 -0.41652 6019 ft 264 kts 204°
2026-04-30 19:11 51.30468 -0.42961 6739 ft 266 kts 204°
2026-04-30 19:12 51.28801 -0.44274 7606 ft 268 kts 204°
2026-04-30 19:12 51.27114 -0.45598 8445 ft 272 kts 204°
2026-04-30 19:12 51.25404 -0.46950 9260 ft 276 kts 204°
2026-04-30 19:13 51.21914 -0.49727 10539 ft 296 kts 203°
2026-04-30 19:13 51.17974 -0.52784 11316 ft 326 kts 203°
2026-04-30 19:13 51.16074 -0.54251 11955 ft 330 kts 203°
2026-04-30 19:14 51.14466 -0.55490 12494 ft 332 kts 203°
2026-04-30 19:14 51.12374 -0.57104 13208 ft 335 kts 202°
2026-04-30 19:14 51.10265 -0.58732 13915 ft 338 kts 202°
2026-04-30 19:15 51.08055 -0.59988 14501 ft 338 kts 189°
2026-04-30 19:15 51.03449 -0.59674 15664 ft 338 kts 161°
2026-04-30 19:15 51.01309 -0.58119 16236 ft 340 kts 147°
2026-04-30 19:16 50.99338 -0.56006 16820 ft 343 kts 146°
2026-04-30 19:16 50.97352 -0.53875 17412 ft 346 kts 146°
2026-04-30 19:16 50.93310 -0.49582 18572 ft 353 kts 146°
2026-04-30 19:17 50.91264 -0.47416 19103 ft 355 kts 146°
2026-04-30 19:17 50.87158 -0.43064 20235 ft 359 kts 146°
2026-04-30 19:17 50.85076 -0.40857 20802 ft 361 kts 146°
2026-04-30 19:18 50.82279 -0.37896 21532 ft 363 kts 146°
2026-04-30 19:18 50.78777 -0.34194 22384 ft 366 kts 146°
2026-04-30 19:18 50.76656 -0.31961 22902 ft 367 kts 146°
2026-04-30 19:19 50.74522 -0.29716 23410 ft 369 kts 146°
2026-04-30 19:19 50.72377 -0.27460 23880 ft 371 kts 146°
2026-04-30 19:19 50.68080 -0.22943 24674 ft 376 kts 146°
2026-04-30 19:20 50.65896 -0.20645 25060 ft 379 kts 146°
2026-04-30 19:20 50.63698 -0.18334 25451 ft 381 kts 146°
2026-04-30 19:20 50.59252 -0.13671 26186 ft 387 kts 146°
2026-04-30 19:21 50.57005 -0.11320 26556 ft 389 kts 146°
2026-04-30 19:21 50.52461 -0.06592 27286 ft 394 kts 147°
2026-04-30 19:22 50.47888 -0.01857 27999 ft 399 kts 147°
2026-04-30 19:22 50.40880 0.05415 29084 ft 406 kts 146°
2026-04-30 19:23 50.33727 0.12810 30112 ft 415 kts 146°
2026-04-30 19:24 50.28918 0.17779 30719 ft 419 kts 147°
2026-04-30 19:24 50.26487 0.20285 31064 ft 419 kts 147°
2026-04-30 19:24 50.21683 0.25215 31152 ft 405 kts 147°
2026-04-30 19:25 50.14652 0.32439 31147 ft 403 kts 147°
2026-04-30 19:26 50.05305 0.42020 31152 ft 403 kts 147°
2026-04-30 19:27 49.98265 0.49207 31148 ft 404 kts 146°
2026-04-30 19:28 49.91213 0.56380 31160 ft 404 kts 146°
2026-04-30 19:29 49.81864 0.66024 31162 ft 405 kts 144°
2026-04-30 19:30 49.72751 0.76294 31171 ft 405 kts 144°
2026-04-30 19:31 49.63593 0.86385 31164 ft 406 kts 144°
2026-04-30 19:31 49.56689 0.93945 31174 ft 406 kts 144°
2026-04-30 19:32 49.52092 0.98984 31180 ft 406 kts 144°
2026-04-30 19:32 49.47515 1.03977 31181 ft 406 kts 144°
2026-04-30 19:33 49.42902 1.08992 31181 ft 406 kts 144°
2026-04-30 19:33 49.38287 1.13995 31181 ft 406 kts 144°
2026-04-30 19:34 49.33669 1.18993 31179 ft 406 kts 144°
2026-04-30 19:35 49.26769 1.26448 31177 ft 406 kts 144°
2026-04-30 19:35 49.22141 1.31430 31182 ft 407 kts 144°
2026-04-30 19:36 49.17512 1.36400 31175 ft 406 kts 144°
2026-04-30 19:36 49.10608 1.43809 31181 ft 406 kts 144°
2026-04-30 19:37 49.05980 1.48747 31190 ft 406 kts 144°
2026-04-30 19:37 49.01351 1.53675 31182 ft 406 kts 144°
2026-04-30 19:38 48.96716 1.58605 31178 ft 406 kts 144°
2026-04-30 19:38 48.92079 1.63528 31177 ft 407 kts 144°
2026-04-30 19:39 48.87468 1.68401 31177 ft 407 kts 144°
2026-04-30 19:39 48.82819 1.73298 31176 ft 407 kts 144°
2026-04-30 19:40 48.78174 1.78193 31173 ft 406 kts 144°
2026-04-30 19:40 48.73540 1.83073 31178 ft 406 kts 144°
2026-04-30 19:41 48.68933 1.87903 31181 ft 405 kts 144°
2026-04-30 19:41 48.64297 1.92749 31183 ft 405 kts 144°
2026-04-30 19:42 48.59658 1.97587 31179 ft 405 kts 144°
2026-04-30 19:42 48.55015 2.02419 31176 ft 405 kts 144°
2026-04-30 19:43 48.50402 2.07218 31170 ft 405 kts 144°
2026-04-30 19:44 48.43431 2.14447 31162 ft 405 kts 144°
2026-04-30 19:44 48.39564 2.18440 31165 ft 405 kts 144°
2026-04-30 19:45 48.34911 2.23229 31157 ft 406 kts 144°
2026-04-30 19:45 48.29464 2.28718 31165 ft 406 kts 150°
2026-04-30 19:46 48.24169 2.31669 31155 ft 408 kts 163°
2026-04-30 19:46 48.19601 2.33477 31163 ft 409 kts 163°
2026-04-30 19:47 48.14103 2.35661 31151 ft 409 kts 163°
2026-04-30 19:47 48.07780 2.38541 31148 ft 409 kts 159°
2026-04-30 19:48 48.03279 2.40874 31152 ft 409 kts 159°
2026-04-30 19:48 47.97940 2.43637 31152 ft 409 kts 160°
2026-04-30 19:49 47.92539 2.46337 31142 ft 410 kts 160°
2026-04-30 19:49 47.84406 2.50326 31141 ft 411 kts 160°
2026-04-30 19:50 47.79014 2.52984 31139 ft 411 kts 160°
2026-04-30 19:50 47.73591 2.55662 31149 ft 411 kts 160°
2026-04-30 19:51 47.68154 2.58329 31147 ft 412 kts 160°
2026-04-30 19:51 47.62712 2.60989 31148 ft 412 kts 160°
2026-04-30 19:52 47.57303 2.63621 31151 ft 412 kts 160°
2026-04-30 19:52 47.51851 2.66277 31144 ft 413 kts 160°
2026-04-30 19:53 47.46381 2.68937 31141 ft 414 kts 160°
2026-04-30 19:53 47.40900 2.71596 31142 ft 415 kts 160°
2026-04-30 19:54 47.35453 2.74244 31144 ft 415 kts 160°
2026-04-30 19:54 47.29957 2.76903 31144 ft 416 kts 161°
2026-04-30 19:55 47.24441 2.79559 31144 ft 417 kts 161°
2026-04-30 19:55 47.18921 2.82217 31145 ft 418 kts 161°
2026-04-30 19:56 47.13395 2.84870 31159 ft 418 kts 161°
2026-04-30 19:56 47.07906 2.87492 31137 ft 417 kts 161°
2026-04-30 19:57 47.02384 2.90132 31112 ft 418 kts 161°
2026-04-30 19:57 46.96851 2.92778 31110 ft 419 kts 161°
2026-04-30 19:58 46.91306 2.95417 31120 ft 419 kts 161°
2026-04-30 19:58 46.85802 2.98018 31134 ft 418 kts 161°
2026-04-30 19:59 46.80264 3.00632 31146 ft 418 kts 161°
2026-04-30 20:00 46.71967 3.04556 31175 ft 418 kts 161°
2026-04-30 20:00 46.66442 3.07164 31179 ft 417 kts 161°
2026-04-30 20:01 46.58193 3.11030 31175 ft 417 kts 161°
2026-04-30 20:01 46.52674 3.13640 31172 ft 417 kts 160°
2026-04-30 20:02 46.44534 3.18022 31181 ft 415 kts 158°
2026-04-30 20:03 46.36472 3.22471 31163 ft 415 kts 159°
2026-04-30 20:03 46.31050 3.25377 31162 ft 416 kts 159°
2026-04-30 20:04 46.25615 3.28272 31167 ft 416 kts 159°
2026-04-30 20:05 46.17469 3.32611 31175 ft 416 kts 159°
2026-04-30 20:05 46.09366 3.36933 31186 ft 416 kts 159°
2026-04-30 20:06 46.03946 3.39808 31192 ft 415 kts 159°
2026-04-30 20:06 45.98534 3.42670 31199 ft 414 kts 159°
2026-04-30 20:07 45.93165 3.45508 31206 ft 414 kts 159°
2026-04-30 20:08 45.85050 3.49735 31210 ft 413 kts 161°
2026-04-30 20:08 45.79558 3.52184 31209 ft 413 kts 163°
2026-04-30 20:09 45.74025 3.54458 31208 ft 414 kts 163°
2026-04-30 20:09 45.65774 3.57939 31195 ft 415 kts 164°
2026-04-30 20:10 45.57465 3.61519 31201 ft 416 kts 164°
2026-04-30 20:11 45.49141 3.65082 31197 ft 417 kts 164°
2026-04-30 20:11 45.43605 3.67444 31197 ft 419 kts 164°
2026-04-30 20:12 45.35208 3.71004 31208 ft 420 kts 164°
2026-04-30 20:13 45.29632 3.73543 31208 ft 423 kts 158°
2026-04-30 20:13 45.27052 3.75568 31202 ft 426 kts 147°
2026-04-30 20:13 45.24758 3.78250 31200 ft 429 kts 136°
2026-04-30 20:14 45.21207 3.85010 31195 ft 432 kts 124°
2026-04-30 20:14 45.17941 3.92178 31199 ft 433 kts 124°
2026-04-30 20:15 45.14661 3.99341 31206 ft 434 kts 124°
2026-04-30 20:15 45.11378 4.06507 31207 ft 434 kts 124°
2026-04-30 20:16 45.08103 4.13646 31200 ft 437 kts 124°
2026-04-30 20:16 45.04785 4.20863 31211 ft 438 kts 124°
2026-04-30 20:17 45.01004 4.27583 31224 ft 437 kts 134°
2026-04-30 20:17 44.96890 4.33903 31240 ft 437 kts 134°
2026-04-30 20:18 44.92817 4.40187 31247 ft 437 kts 134°
2026-04-30 20:18 44.88700 4.46502 31227 ft 438 kts 134°
2026-04-30 20:19 44.84565 4.52824 31220 ft 439 kts 134°
2026-04-30 20:19 44.80412 4.59152 31217 ft 440 kts 134°
2026-04-30 20:20 44.76284 4.65427 31241 ft 439 kts 134°
2026-04-30 20:20 44.72135 4.71734 31246 ft 439 kts 134°
2026-04-30 20:21 44.67986 4.78023 31247 ft 438 kts 134°
2026-04-30 20:21 44.63836 4.84290 31248 ft 438 kts 134°
2026-04-30 20:22 44.59796 4.90617 31248 ft 438 kts 132°
2026-04-30 20:22 44.55802 4.97076 31254 ft 438 kts 131°
2026-04-30 20:23 44.51813 5.03502 31263 ft 436 kts 132°
2026-04-30 20:23 44.47819 5.09863 31236 ft 435 kts 132°
2026-04-30 20:24 44.43806 5.16229 31222 ft 437 kts 132°
2026-04-30 20:24 44.39806 5.22558 31112 ft 435 kts 133°
2026-04-30 20:24 44.37805 5.25678 30867 ft 428 kts 136°
2026-04-30 20:25 44.33268 5.30928 30378 ft 421 kts 143°
2026-04-30 20:25 44.30968 5.33433 30106 ft 418 kts 143°
2026-04-30 20:26 44.26437 5.38380 29544 ft 413 kts 143°
2026-04-30 20:26 44.21958 5.43262 28990 ft 410 kts 143°
2026-04-30 20:26 44.19714 5.45699 28725 ft 407 kts 143°
2026-04-30 20:27 44.15299 5.50480 27933 ft 398 kts 143°
2026-04-30 20:27 44.10961 5.55175 27104 ft 392 kts 143°
2026-04-30 20:28 44.06717 5.59780 26325 ft 386 kts 143°
2026-04-30 20:28 44.02504 5.64326 25524 ft 381 kts 143°
2026-04-30 20:29 43.98337 5.68806 24714 ft 377 kts 143°
2026-04-30 20:30 43.92162 5.75445 23410 ft 371 kts 142°
2026-04-30 20:30 43.86136 5.81892 22137 ft 362 kts 142°
2026-04-30 20:31 43.80194 5.88233 20829 ft 357 kts 142°
2026-04-30 20:32 43.74327 5.94479 19535 ft 353 kts 142°
2026-04-30 20:32 43.70472 5.98571 18676 ft 351 kts 142°
2026-04-30 20:33 43.68534 6.00624 18208 ft 350 kts 142°
2026-04-30 20:33 43.64692 6.04688 17337 ft 346 kts 142°
2026-04-30 20:33 43.62788 6.06705 16907 ft 344 kts 142°
2026-04-30 20:34 43.59476 6.11360 16076 ft 340 kts 121°
2026-04-30 20:34 43.57625 6.17234 15300 ft 334 kts 110°
2026-04-30 20:35 43.56806 6.20224 14906 ft 332 kts 110°
2026-04-30 20:35 43.55990 6.23198 14522 ft 331 kts 110°
2026-04-30 20:35 43.54363 6.29107 13725 ft 328 kts 110°
2026-04-30 20:36 43.53551 6.32031 13344 ft 325 kts 110°
2026-04-30 20:36 43.52744 6.34928 12970 ft 323 kts 110°
2026-04-30 20:36 43.51163 6.40621 12268 ft 317 kts 110°
2026-04-30 20:37 43.50233 6.43312 12107 ft 308 kts 122°
2026-04-30 20:37 43.48910 6.45600 11813 ft 305 kts 133°
2026-04-30 20:37 43.47439 6.47707 11432 ft 305 kts 133°
2026-04-30 20:37 43.45972 6.49816 11102 ft 304 kts 133°
2026-04-30 20:38 43.44514 6.51915 10738 ft 303 kts 133°
2026-04-30 20:38 43.43052 6.54023 10292 ft 307 kts 132°
2026-04-30 20:38 43.41581 6.56143 10029 ft 303 kts 133°
2026-04-30 20:39 43.39082 6.60624 9370 ft 295 kts 112°
2026-04-30 20:39 43.38532 6.63306 9066 ft 290 kts 96°
2026-04-30 20:39 43.38453 6.66090 8480 ft 295 kts 88°
2026-04-30 20:40 43.38452 6.71832 7284 ft 306 kts 89°
2026-04-30 20:40 43.38448 6.74765 6696 ft 305 kts 89°
2026-04-30 20:40 43.38445 6.77625 6089 ft 294 kts 89°
2026-04-30 20:41 43.38788 6.82980 4896 ft 276 kts 71°
2026-04-30 20:41 43.39625 6.85305 4286 ft 269 kts 56°
2026-04-30 20:41 43.40816 6.87188 4039 ft 252 kts 47°
2026-04-30 20:41 43.42031 6.88797 4003 ft 235 kts 46°
2026-04-30 20:42 43.43165 6.90314 3998 ft 220 kts 47°
2026-04-30 20:42 43.44216 6.91740 4005 ft 206 kts 47°
2026-04-30 20:42 43.46103 6.94307 4022 ft 174 kts 48°
2026-04-30 20:43 43.46937 6.95443 4016 ft 168 kts 48°
2026-04-30 20:43 43.47755 6.96560 4011 ft 168 kts 48°
2026-04-30 20:43 43.48588 6.97695 4012 ft 168 kts 47°
2026-04-30 20:44 43.50247 6.99958 3993 ft 169 kts 48°
2026-04-30 20:44 43.51066 7.01074 3866 ft 156 kts 48°
2026-04-30 20:44 43.52457 7.02972 3527 ft 135 kts 49°
2026-04-30 20:45 43.53783 7.04785 3170 ft 134 kts 49°
2026-04-30 20:45 43.54444 7.05688 2992 ft 134 kts 49°
2026-04-30 20:45 43.55094 7.06577 2811 ft 133 kts 50°
2026-04-30 20:46 43.57056 7.09261 2287 ft 132 kts 49°
2026-04-30 20:46 43.57711 7.10158 2109 ft 133 kts 49°
2026-04-30 20:47 43.59013 7.11940 1751 ft 132 kts 48°
2026-04-30 20:47 43.59665 7.12833 1577 ft 131 kts 49°
2026-04-30 20:48 43.60949 7.14594 1228 ft 136 kts 45°
2026-04-30 20:48 43.61638 7.15539 1052 ft 141 kts 45°
2026-04-30 20:48 43.62330 7.16493 857 ft 140 kts 44°
2026-04-30 20:48 43.63019 7.17439 687 ft 139 kts 43°
2026-04-30 20:49 43.63699 7.18374 491 ft 137 kts 42°
2026-04-30 20:49 43.64376 7.19298 320 ft 136 kts 43°
2026-04-30 20:49 43.65040 7.20232 126 ft 136 kts 42°
2026-04-30 20:50 43.66187 7.21788 21 ft 77 kts 45°
2026-04-30 20:50 43.66450 7.22148 22 ft 36 kts 45°
2026-04-30 20:50 43.66615 7.22375 20 ft 30 kts 45°
2026-04-30 20:50 43.66727 7.22504 20 ft 12 kts
2026-04-30 20:51 43.66784 7.22436 20 ft 10 kts 314°
2026-04-30 20:51 43.66777 7.22277 21 ft 13 kts 225°
2026-04-30 20:51 43.66708 7.22182 21 ft 16 kts 225°
2026-04-30 20:52 43.66624 7.22067 21 ft 18 kts 225°
2026-04-30 20:52 43.66527 7.21933 21 ft 21 kts 225°
2026-04-30 20:52 43.66290 7.21606 21 ft 26 kts 225°
2026-04-30 20:53 43.66158 7.21427 21 ft 26 kts 223°
2026-04-30 20:53 43.66037 7.21260 21 ft 19 kts 225°
2026-04-30 20:53 43.65955 7.21140 21 ft 15 kts 245°
2026-04-30 20:54 43.66146 7.21027 21 ft 20 kts 351°
2026-04-30 20:54 43.66276 7.20998 21 ft 14 kts 350°
2026-04-30 20:54 43.66319 7.20899 21 ft 10 kts 262°
2026-04-30 20:55 43.66362 7.20860 24 ft 6 kts 351°
2026-04-30 20:55 43.66377 7.20856 21 ft 1 kts 350°
2026-04-30 20:55 43.66379 7.20855 21 ft 0 kts 350°